AMX605 MMAA-MMMX

Flight info

Callsign AMX605
Flight time 0h 47m
Altitude 36000
Route ALNUS1B ALNUS UT117 ESPOS ESPOS4B
Aircraft B738/M-SDE2E3FGHIRWXY/LB1

Departure

Time 2026-05-07 04:16
Airport General Juan N. Álvarez International Airport (MMAA)

Arrival

Time 2026-05-07 05:04
Airport Mexico City Benito Juárez International Airport (MMMX)
Time Latitude Longitude Altitude Speed Heading
2026-05-07 03:51 16.76123 -99.75491 16 ft 0 kts 18°
2026-05-07 04:05 16.76118 -99.75492 7 ft 2 kts 19°
2026-05-07 04:05 16.76103 -99.75498 21 ft 2 kts 19°
2026-05-07 04:06 16.76087 -99.75504 17 ft 2 kts 21°
2026-05-07 04:06 16.76072 -99.75510 20 ft 2 kts 23°
2026-05-07 04:06 16.76057 -99.75517 16 ft 2 kts 27°
2026-05-07 04:06 16.76043 -99.75526 18 ft 2 kts 39°
2026-05-07 04:07 16.76032 -99.75540 20 ft 2 kts 86°
2026-05-07 04:07 16.76033 -99.75550 18 ft 1 kts 107°
2026-05-07 04:09 16.76033 -99.75549 16 ft 1 kts 108°
2026-05-07 04:09 16.76029 -99.75535 18 ft 3 kts 108°
2026-05-07 04:09 16.76018 -99.75500 16 ft 7 kts 108°
2026-05-07 04:10 16.76001 -99.75445 18 ft 10 kts 108°
2026-05-07 04:10 16.75973 -99.75372 16 ft 12 kts 130°
2026-05-07 04:10 16.75901 -99.75334 17 ft 12 kts 134°
2026-05-07 04:10 16.75871 -99.75257 17 ft 11 kts 108°
2026-05-07 04:11 16.75848 -99.75180 17 ft 11 kts 107°
2026-05-07 04:11 16.75823 -99.75105 18 ft 11 kts 108°
2026-05-07 04:11 16.75798 -99.75023 18 ft 13 kts 108°
2026-05-07 04:11 16.75765 -99.74920 16 ft 16 kts 108°
2026-05-07 04:12 16.75727 -99.74798 17 ft 19 kts 108°
2026-05-07 04:12 16.75684 -99.74662 18 ft 20 kts 108°
2026-05-07 04:12 16.75642 -99.74527 19 ft 19 kts 108°
2026-05-07 04:12 16.75601 -99.74397 16 ft 19 kts 108°
2026-05-07 04:13 16.75561 -99.74269 16 ft 19 kts 108°
2026-05-07 04:13 16.75519 -99.74135 17 ft 20 kts 108°
2026-05-07 04:13 16.75476 -99.73996 16 ft 21 kts 108°
2026-05-07 04:13 16.75432 -99.73856 16 ft 20 kts 108°
2026-05-07 04:14 16.75390 -99.73720 16 ft 19 kts 108°
2026-05-07 04:14 16.75348 -99.73588 16 ft 19 kts 108°
2026-05-07 04:14 16.75308 -99.73461 18 ft 18 kts 108°
2026-05-07 04:14 16.75260 -99.73343 16 ft 18 kts 139°
2026-05-07 04:15 16.75145 -99.73355 18 ft 17 kts 198°
2026-05-07 04:15 16.75105 -99.73447 18 ft 16 kts 288°
2026-05-07 04:15 16.75141 -99.73564 17 ft 20 kts 288°
2026-05-07 04:15 16.75222 -99.73819 16 ft 69 kts 288°
2026-05-07 04:16 16.75447 -99.74539 19 ft 136 kts 288°
2026-05-07 04:16 16.75785 -99.75632 187 ft 172 kts 287°
2026-05-07 04:16 16.76126 -99.76773 1107 ft 160 kts 287°
2026-05-07 04:16 16.76471 -99.77873 1867 ft 162 kts 287°
2026-05-07 04:17 16.76852 -99.79085 2335 ft 192 kts 287°
2026-05-07 04:17 16.77306 -99.80516 2573 ft 219 kts 288°
2026-05-07 04:17 16.77809 -99.82094 2850 ft 237 kts 288°
2026-05-07 04:17 16.78340 -99.83762 3318 ft 246 kts 288°
2026-05-07 04:18 16.78892 -99.85494 3709 ft 260 kts 289°
2026-05-07 04:18 16.79829 -99.87147 4224 ft 272 kts 313°
2026-05-07 04:18 16.81344 -99.88330 5069 ft 274 kts 335°
2026-05-07 04:18 16.83168 -99.88937 5904 ft 277 kts 344°
2026-05-07 04:19 16.85053 -99.89439 6657 ft 282 kts 345°
2026-05-07 04:19 16.86950 -99.89938 7342 ft 287 kts 345°
2026-05-07 04:19 16.88897 -99.90464 8059 ft 291 kts 345°
2026-05-07 04:19 16.90870 -99.91007 8793 ft 295 kts 345°
2026-05-07 04:20 16.92871 -99.91562 9538 ft 299 kts 345°
2026-05-07 04:20 16.94918 -99.92005 10202 ft 303 kts 359°
2026-05-07 04:20 16.97025 -99.91615 10458 ft 321 kts 25°
2026-05-07 04:21 17.01112 -99.89129 10914 ft 355 kts 33°
2026-05-07 04:21 17.03228 -99.87755 11454 ft 360 kts 33°
2026-05-07 04:21 17.05359 -99.86381 12157 ft 360 kts 33°
2026-05-07 04:21 17.07508 -99.85009 12856 ft 362 kts 33°
2026-05-07 04:22 17.09664 -99.83642 13516 ft 364 kts 33°
2026-05-07 04:22 17.11844 -99.82266 14141 ft 368 kts 33°
2026-05-07 04:22 17.14047 -99.80876 14691 ft 372 kts 33°
2026-05-07 04:22 17.16280 -99.79468 15247 ft 377 kts 33°
2026-05-07 04:23 17.18535 -99.78046 15820 ft 380 kts 33°
2026-05-07 04:23 17.20868 -99.76785 16374 ft 387 kts 21°
2026-05-07 04:23 17.23544 -99.76306 16917 ft 397 kts
2026-05-07 04:23 17.26321 -99.76336 17481 ft 401 kts
2026-05-07 04:24 17.29118 -99.76431 18040 ft 405 kts 360°
2026-05-07 04:24 17.31951 -99.76536 18524 ft 409 kts 360°
2026-05-07 04:24 17.34817 -99.76631 19012 ft 412 kts 360°
2026-05-07 04:24 17.37695 -99.76713 19493 ft 415 kts 360°
2026-05-07 04:25 17.40599 -99.76785 19974 ft 418 kts
2026-05-07 04:25 17.43519 -99.76851 20432 ft 421 kts
2026-05-07 04:25 17.46462 -99.76915 20898 ft 424 kts
2026-05-07 04:25 17.49417 -99.76979 21360 ft 427 kts 360°
2026-05-07 04:26 17.52361 -99.77044 21776 ft 431 kts 360°
2026-05-07 04:26 17.55378 -99.77109 22206 ft 434 kts 360°
2026-05-07 04:26 17.58404 -99.77175 22637 ft 437 kts 360°
2026-05-07 04:26 17.61456 -99.77241 23047 ft 440 kts 360°
2026-05-07 04:27 17.64537 -99.77307 23463 ft 443 kts 360°
2026-05-07 04:27 17.67642 -99.77374 23801 ft 446 kts 360°
2026-05-07 04:27 17.70756 -99.77442 24146 ft 448 kts 359°
2026-05-07 04:27 17.73880 -99.77509 24509 ft 450 kts 359°
2026-05-07 04:28 17.77024 -99.77577 24863 ft 452 kts 359°
2026-05-07 04:28 17.80181 -99.77666 25200 ft 455 kts 358°
2026-05-07 04:28 17.83342 -99.77817 25523 ft 457 kts 358°
2026-05-07 04:28 17.86532 -99.77998 25828 ft 459 kts 357°
2026-05-07 04:29 17.89731 -99.78188 26147 ft 461 kts 357°
2026-05-07 04:29 17.92951 -99.78376 26467 ft 463 kts 357°
2026-05-07 04:29 17.96174 -99.78559 26761 ft 465 kts 357°
2026-05-07 04:29 17.99408 -99.78738 27061 ft 467 kts 357°
2026-05-07 04:30 18.02629 -99.78913 27362 ft 470 kts 357°
2026-05-07 04:30 18.05901 -99.79088 27652 ft 472 kts 357°
2026-05-07 04:30 18.09185 -99.79264 27941 ft 474 kts 357°
2026-05-07 04:30 18.12483 -99.79440 28228 ft 476 kts 357°
2026-05-07 04:31 18.15794 -99.79617 28515 ft 478 kts 357°
2026-05-07 04:31 18.19120 -99.79795 28779 ft 480 kts 357°
2026-05-07 04:31 18.22461 -99.79974 29093 ft 480 kts 357°
2026-05-07 04:31 18.25792 -99.80153 29500 ft 479 kts 357°
2026-05-07 04:32 18.29132 -99.80332 29824 ft 480 kts 357°
2026-05-07 04:32 18.32469 -99.80511 29889 ft 483 kts 357°
2026-05-07 04:32 18.39217 -99.80874 29898 ft 483 kts 357°
2026-05-07 04:33 18.45933 -99.81236 29906 ft 482 kts 357°
2026-05-07 04:33 18.52590 -99.81594 29905 ft 482 kts 357°
2026-05-07 04:34 18.59299 -99.81955 29919 ft 482 kts 357°
2026-05-07 04:34 18.66004 -99.82272 29909 ft 483 kts
2026-05-07 04:35 18.69299 -99.81636 29943 ft 482 kts 20°
2026-05-07 04:35 18.72269 -99.80043 29929 ft 480 kts 36°
2026-05-07 04:35 18.74771 -99.77719 29734 ft 480 kts 50°
2026-05-07 04:35 18.76614 -99.74818 29594 ft 474 kts 65°
2026-05-07 04:36 18.77982 -99.71661 29453 ft 473 kts 68°
2026-05-07 04:36 18.79278 -99.68473 29293 ft 472 kts 68°
2026-05-07 04:36 18.80563 -99.65285 29133 ft 471 kts 68°
2026-05-07 04:36 18.81856 -99.62120 28974 ft 469 kts 68°
2026-05-07 04:37 18.83163 -99.58975 28840 ft 468 kts 68°
2026-05-07 04:37 18.84482 -99.55837 28686 ft 467 kts 68°
2026-05-07 04:37 18.85806 -99.52708 28542 ft 466 kts 67°
2026-05-07 04:37 18.87127 -99.49590 28392 ft 465 kts 67°
2026-05-07 04:38 18.88448 -99.46471 28246 ft 464 kts 67°
2026-05-07 04:38 18.89761 -99.43364 28086 ft 463 kts 67°
2026-05-07 04:38 18.91074 -99.40255 27955 ft 462 kts 67°
2026-05-07 04:38 18.92379 -99.37156 27809 ft 462 kts 68°
2026-05-07 04:39 18.93667 -99.34053 27653 ft 461 kts 68°
2026-05-07 04:39 18.94924 -99.30987 27523 ft 460 kts 68°
2026-05-07 04:39 18.96193 -99.27877 27384 ft 460 kts 68°
2026-05-07 04:39 18.97460 -99.24776 27243 ft 460 kts 68°
2026-05-07 04:40 18.98723 -99.21677 27081 ft 459 kts 68°
2026-05-07 04:40 18.99980 -99.18598 26937 ft 452 kts 68°
2026-05-07 04:40 19.01223 -99.15557 26807 ft 451 kts 68°
2026-05-07 04:40 19.02470 -99.12503 26668 ft 453 kts 68°
2026-05-07 04:41 19.03713 -99.09457 26521 ft 450 kts 68°
2026-05-07 04:41 19.04950 -99.06434 26391 ft 449 kts 68°
2026-05-07 04:41 19.06188 -99.03403 26255 ft 448 kts 68°
2026-05-07 04:41 19.07422 -99.00378 26130 ft 448 kts 68°
2026-05-07 04:42 19.08651 -98.97361 25981 ft 447 kts 68°
2026-05-07 04:42 19.09468 -98.95356 25585 ft 451 kts 68°
2026-05-07 04:42 19.10705 -98.92314 24902 ft 449 kts 68°
2026-05-07 04:42 19.11945 -98.89270 24175 ft 450 kts 68°
2026-05-07 04:43 19.13183 -98.86226 23454 ft 449 kts 68°
2026-05-07 04:43 19.15063 -98.82351 22660 ft 443 kts 58°
2026-05-07 04:43 19.16225 -98.80539 22373 ft 437 kts 56°
2026-05-07 04:43 19.17972 -98.77954 21955 ft 428 kts 55°
2026-05-07 04:44 19.19686 -98.75455 21555 ft 420 kts 55°
2026-05-07 04:44 19.21375 -98.72971 21167 ft 413 kts 56°
2026-05-07 04:44 19.23041 -98.70482 20787 ft 406 kts 56°
2026-05-07 04:44 19.24638 -98.68069 20435 ft 405 kts 56°
2026-05-07 04:45 19.26251 -98.65611 20059 ft 409 kts 57°
2026-05-07 04:45 19.27873 -98.63131 19661 ft 409 kts 57°
2026-05-07 04:45 19.29480 -98.60672 19294 ft 404 kts 57°
2026-05-07 04:45 19.31071 -98.58236 18900 ft 401 kts 57°
2026-05-07 04:46 19.32661 -98.55800 18243 ft 404 kts 57°
2026-05-07 04:46 19.34250 -98.53364 17743 ft 400 kts 56°
2026-05-07 04:46 19.35822 -98.50958 17338 ft 395 kts 56°
2026-05-07 04:46 19.37373 -98.48581 16960 ft 389 kts 56°
2026-05-07 04:47 19.38900 -98.46241 16606 ft 385 kts 56°
2026-05-07 04:47 19.40564 -98.44044 16219 ft 382 kts 43°
2026-05-07 04:47 19.42780 -98.42557 15884 ft 376 kts 23°
2026-05-07 04:47 19.45290 -98.41867 15552 ft 372 kts
2026-05-07 04:48 19.47862 -98.41974 15204 ft 368 kts 353°
2026-05-07 04:48 19.50376 -98.42393 14834 ft 364 kts 351°
2026-05-07 04:48 19.52853 -98.42837 14639 ft 356 kts 351°
2026-05-07 04:48 19.55257 -98.43256 14587 ft 343 kts 352°
2026-05-07 04:49 19.57566 -98.43637 14571 ft 329 kts 352°
2026-05-07 04:49 19.59778 -98.43992 14574 ft 315 kts 352°
2026-05-07 04:49 19.61893 -98.44393 14573 ft 303 kts 348°
2026-05-07 04:49 19.63881 -98.44929 14572 ft 295 kts 346°
2026-05-07 04:50 19.65859 -98.45496 14587 ft 296 kts 346°
2026-05-07 04:50 19.67861 -98.46058 14595 ft 298 kts 346°
2026-05-07 04:50 19.69876 -98.46612 14599 ft 299 kts 347°
2026-05-07 04:50 19.71898 -98.47163 14592 ft 300 kts 347°
2026-05-07 04:51 19.73883 -98.47838 14576 ft 301 kts 332°
2026-05-07 04:51 19.75593 -98.49116 14603 ft 301 kts 323°
2026-05-07 04:51 19.77241 -98.50482 14607 ft 301 kts 322°
2026-05-07 04:51 19.78902 -98.51852 14599 ft 302 kts 323°
2026-05-07 04:52 19.80570 -98.53213 14585 ft 301 kts 323°
2026-05-07 04:52 19.82234 -98.54563 14594 ft 301 kts 323°
2026-05-07 04:52 19.83892 -98.55933 14581 ft 301 kts 318°
2026-05-07 04:52 19.85144 -98.57703 14617 ft 300 kts 300°
2026-05-07 04:53 19.86158 -98.59643 14595 ft 300 kts 299°
2026-05-07 04:53 19.87170 -98.61576 14582 ft 299 kts 300°
2026-05-07 04:53 19.88163 -98.63480 14585 ft 298 kts 295°
2026-05-07 04:53 19.88633 -98.65609 14585 ft 298 kts 268°
2026-05-07 04:54 19.88181 -98.67742 14588 ft 298 kts 243°
2026-05-07 04:54 19.86903 -98.69486 14439 ft 303 kts 218°
2026-05-07 04:54 19.85055 -98.70541 14272 ft 302 kts 198°
2026-05-07 04:54 19.83062 -98.71250 14091 ft 303 kts 196°
2026-05-07 04:55 19.81060 -98.71911 13894 ft 300 kts 196°
2026-05-07 04:55 19.79083 -98.72559 13700 ft 296 kts 196°
2026-05-07 04:55 19.77133 -98.73208 13511 ft 291 kts 196°
2026-05-07 04:55 19.75219 -98.73853 13322 ft 287 kts 196°
2026-05-07 04:56 19.73324 -98.74499 13154 ft 285 kts 197°
2026-05-07 04:56 19.71449 -98.75140 12965 ft 282 kts 197°
2026-05-07 04:56 19.69590 -98.75776 12797 ft 280 kts 197°
2026-05-07 04:56 19.67732 -98.76413 12614 ft 278 kts 197°
2026-05-07 04:57 19.65927 -98.77032 12434 ft 274 kts 197°
2026-05-07 04:57 19.64130 -98.77649 12274 ft 267 kts 197°
2026-05-07 04:57 19.62400 -98.78242 12109 ft 256 kts 197°
2026-05-07 04:57 19.60743 -98.78811 11916 ft 245 kts 197°
2026-05-07 04:58 19.59221 -98.79525 11702 ft 237 kts 218°
2026-05-07 04:58 19.58166 -98.80820 11500 ft 230 kts 237°
2026-05-07 04:58 19.57346 -98.82275 11288 ft 229 kts 239°
2026-05-07 04:58 19.56559 -98.83730 11053 ft 225 kts 239°
2026-05-07 04:59 19.55780 -98.85156 10834 ft 223 kts 239°
2026-05-07 04:59 19.55008 -98.86570 10627 ft 221 kts 239°
2026-05-07 04:59 19.54235 -98.87968 10420 ft 219 kts 239°
2026-05-07 04:59 19.53466 -98.89350 10227 ft 215 kts 239°
2026-05-07 05:00 19.52716 -98.90696 10013 ft 209 kts 239°
2026-05-07 05:00 19.51987 -98.92000 9824 ft 202 kts 239°
2026-05-07 05:00 19.51284 -98.93260 9605 ft 197 kts 239°
2026-05-07 05:00 19.50593 -98.94493 9414 ft 191 kts 239°
2026-05-07 05:01 19.49934 -98.95670 9313 ft 182 kts 240°
2026-05-07 05:01 19.49300 -98.96799 9230 ft 174 kts 241°
2026-05-07 05:01 19.48684 -98.97899 9104 ft 174 kts 243°
2026-05-07 05:01 19.48054 -98.99027 9074 ft 178 kts 243°
2026-05-07 05:02 19.47428 -99.00143 8859 ft 174 kts 244°
2026-05-07 05:02 19.46822 -99.01223 8582 ft 170 kts 243°
2026-05-07 05:02 19.46223 -99.02296 8119 ft 168 kts 242°
2026-05-07 05:02 19.45614 -99.03352 7816 ft 168 kts 241°
2026-05-07 05:03 19.45026 -99.04417 7567 ft 167 kts 242°
2026-05-07 05:03 19.44435 -99.05488 7320 ft 169 kts 239°
2026-05-07 05:03 19.43872 -99.06495 7303 ft 147 kts 239°
2026-05-07 05:03 19.43419 -99.07302 7302 ft 106 kts 239°
2026-05-07 05:04 19.43120 -99.07835 7303 ft 64 kts 238°
2026-05-07 05:04 19.42993 -99.08059 7303 ft 13 kts 240°
2026-05-07 05:04 19.42980 -99.08099 7302 ft 6 kts 274°
2026-05-07 05:04 19.43004 -99.08132 7302 ft 6 kts 306°
2026-05-07 05:05 19.43016 -99.08173 7302 ft 6 kts 274°
2026-05-07 05:05 19.43017 -99.08215 7302 ft 6 kts 273°
2026-05-07 05:05 19.43019 -99.08257 7284 ft 6 kts 270°
2026-05-07 05:05 19.43020 -99.08298 7302 ft 6 kts 271°
2026-05-07 05:06 19.43021 -99.08338 7302 ft 6 kts 272°
2026-05-07 05:06 19.43023 -99.08386 7302 ft 7 kts 271°
2026-05-07 05:06 19.43024 -99.08447 7302 ft 9 kts 271°
2026-05-07 05:06 19.43026 -99.08513 7301 ft 9 kts 272°
2026-05-07 05:07 19.43046 -99.08584 7301 ft 10 kts 309°
2026-05-07 05:07 19.43108 -99.08620 7302 ft 10 kts 356°
2026-05-07 05:07 19.43159 -99.08575 7302 ft 10 kts 58°
2026-05-07 05:07 19.43193 -99.08513 7302 ft 10 kts 60°
2026-05-07 05:08 19.43212 -99.08482 7302 ft 3 kts 40°
2026-05-07 05:08 19.43230 -99.08478 7302 ft 3 kts 359°
2026-05-07 05:08 19.43247 -99.08485 7302 ft 3 kts 333°
2026-05-07 05:08 19.43262 -99.08494 7302 ft 2 kts 329°
2026-05-07 05:09 19.43276 -99.08503 7302 ft 2 kts 327°
2026-05-07 05:09 19.43290 -99.08513 7302 ft 2 kts 327°
2026-05-07 05:09 19.43293 -99.08514 7302 ft 0 kts 327°